Regional Weather Roundup
Issued by NWS Wakefield, VA

Home | Current Version | Previous Version | Text Only | Print | Product List | Glossary On
Versions: 1 2 3 4 5 6 7 8 9 10 11 12 13 14 15 16 17 18 19 20 21 22 23 24 25 26
000
ASUS41 KAKQ 240314
RWRAKQ

REGIONAL WEATHER ROUNDUP
NATIONAL WEATHER SERVICE WAKEFIELD VA
1000 PM EST THU FEB 23 2017

Note: "fair" indicates few or no clouds below 12,000 feet with no
significant weather and/or obstructions to visibility. * = Denotes
station may not report precipitation (e.g., rain,snow,etc.),
thunder or fog.

VAZ042-051-052>054-056-240400-
NORTHERN VIRGINIA

CITY           SKY/WX    TMP DP  RH WIND       PRES   REMARKS
WASH NATIONAL  PTCLDY    62  52  69 S12       29.88S
DULLES         MOCLDY    64  50  60 S8        29.87R
FORT BELVOIR   CLEAR     57  50  76 SE5       29.88S
QUANTICO       CLEAR     56  50  80 SW8       29.90R
FREDERICKSBRG* CLEAR     63  53  68 S7        29.89R
STAFFORD*      CLEAR     62  51  69 S3        29.93S
WARRENTON      CLEAR     65  48  55 S6        29.87S
CULPEPER*      PTCLDY    60  51  74 S3        29.89S
MANASSAS*        N/A     62  51  67 SW3       29.88S
LEESBURG*      PTCLDY    64  54  68 MISG      29.88R
WINCHESTER     PTCLDY    59  50  72 S5        29.86R
FRONT ROYAL*   NOT AVBL
LURAY*         NOT AVBL
$$

VAZ048-049-060>072-079>083-240400-
CENTRAL AND SOUTH CENTRAL VIRGINIA

CITY           SKY/WX    TMP DP  RH WIND       PRES   REMARKS
RICHMOND       CLEAR     61  53  75 S8        29.92S
CHESTERFIELD*  FAIR      61  39  44 S7        29.93F
PETERSBURG*    CLEAR     58  52  79 CALM      29.93S
HANOVER        CLEAR     61  50  67 S7        29.93R
TAPPAHANNOCK*  CLEAR     61  44  53 S6        29.93R
QUINTON*       NOT AVBL
CHARLOTTSVILLE CLEAR     65  53  65 SW7       29.89R
GORDONSVILLE*  NOT AVBL
ORANGE*        CLEAR     54  50  87 CALM      29.91S
LOUISA*        CLEAR     66  55  68 S3        29.89S
BUMPASS*       NOT AVBL
FARMVILLE*     CLEAR     57  54  91 CALM      29.90F
CREWE*         NOT AVBL
FORT PICKETT*  NOT AVBL
CHASE CITY*    NOT AVBL
CLARKSVILLE*   NOT AVBL
SOUTH HILL*    CLEAR     54  50  87 CALM      29.99S
LAWRENCEVILLE* NOT AVBL
EMPORIA*         N/A     48  45  87 CALM      29.95S
$$

VAZ088>098-240400-
SOUTHEAST VIRGINIA

CITY           SKY/WX    TMP DP  RH WIND       PRES   REMARKS
NORFOLK        CLEAR     59  53  80 S5        29.94R
VIRGINIA BEACH PTCLDY    57  51  80 SE6       29.94S
NORFOLK NAVAL  CLEAR     60  52  74 SE6       29.96R
WEST POINT*    CLEAR     61  52  71 SE5       29.94S
SALUDA*        NOT AVBL
NEWPORT NEWS   CLEAR     60  53  77 S3        29.94R
LANGLEY AFB    CLEAR     59  55  84 S6        29.94R
FORT EUSTIS    CLEAR     58  52  79 SE6       29.92R
WILLIAMSBURG*  CLEAR     57  54  88 CALM      29.94F
HR EXEC AP*    NOT AVBL
FRANKLIN*      CLEAR     58  53  84 CALM      29.95R
US460-WAKEFLD  CLEAR     56  52  86 CALM      29.94R
$$

VAZ020-022-025-037-045-240400-
WEST CENTRAL AND SOUTHWEST VIRGINIA

CITY           SKY/WX    TMP DP  RH WIND       PRES   REMARKS
STAUNTON*      MOCLDY    54  49  83 SW3       29.92R
WAYNESBORO*    NOT AVBL
HOT SPRINGS VA CLEAR     54  45  71 CALM      29.96S
LYNCHBURG      CLEAR     57  52  82 S6        29.93R
DANVILLE       CLOUDY    59  52  77 CALM      29.92R
SOUTH BOSTON*  NOT AVBL
MARTINSVILLE   PTCLDY    53  52  95 CALM      29.94S
ROANOKE        PTCLDY    62  52  69 E8        29.93S
BLACKSBURG     PTCLDY    52  49  89 CALM      29.96S
DUBLIN*        CLEAR     57  51  80 CALM      29.94S
MARION*        CLEAR     55  51  86 E5        29.95F
HILLSVILLE*    CLEAR     56  52  84 CALM      29.94S
RICHLANDS*     FAIR      58  50  74 SE3       29.90F
WISE*          CLEAR     59  48  67 CALM      29.90S
ABINGDON*      CLEAR     61  51  69 E3        29.90R
$$

MDZ021>025-VAZ099-100-240400-
SOUTHERN MARYLAND AND THE DELMARVA PENINSULA

CITY           SKY/WX    TMP DP  RH WIND       PRES   REMARKS
PATUXENT RIVER CLEAR     58  53  84 S6        29.92R
BAY BRIDGE APT CLEAR     55  50  82 SE10      29.90S
LEONARDTOWN    CLEAR     61  52  72 S3        29.93S
DOVER          CLEAR     59  57  95 S8        29.90R
GEORGETOWN     CLEAR     58  51  78 S8        29.93S
EASTON         CLEAR     61  52  72 S9        29.95R
CAMBRIDGE      CLEAR     57  52  82 S10       29.93R
SALISBURY      CLEAR     57  53  86 S9        29.93S
OCEAN CITY     CLEAR     52  49  89 S7        29.95S
WALLOPS ISLAND CLEAR     54  52  93 S12       29.96S
ACCOMACK*      CLEAR     57  53  86 S6        29.95S
$$

NCZ012>017-030>032-240400-
NORTH CENTRAL AND EASTERN NORTH CAROLINA

CITY           SKY/WX    TMP DP  RH WIND       PRES   REMARKS
ROANOKE RAPIDS FAIR      59  54  82 CALM      29.93F
RALEIGH        PTCLDY    61  50  67 S5        29.93R
ELIZABETH CITY CLOUDY    55  52  89 SE6       29.94F
AHOSKIE*         N/A     55  51  88 CALM      29.95R
EDENTON*       CLOUDY    54  51  87 CALM      29.95S
CURRITUCK*     CLOUDY    55  55 100 CALM      29.95F
KILL DEVIL HLS NOT AVBL
MANTEO         CLOUDY    54  53  97 CALM      29.96R
CAPE HATTERAS  CLOUDY    67  58  72 E6        29.94S HAZE
TARBORO*       NOT AVBL
GOLDSBORO      CLEAR     59  58  97 CALM      29.91S
WASHINGTON     PTCLDY    57  55  93 CALM      29.94S
GREENVILLE     CLEAR     59  57  94 CALM      29.96R
NEW BERN       MOCLDY    56  56 100 CALM      29.94S
WILMINGTON     CLOUDY    58  57  97 NE3       29.91S
$$

VAZ048-240400-
ELSEWHERE

CITY           SKY/WX    TMP DP  RH WIND       PRES   REMARKS
HARRISBURG PA  CLOUDY    62  52  69 CALM      29.85R
BALTIMORE      PTCLDY    57  50  77 SE5       29.87S
ANNAPOLIS      CLEAR     53  49  86 SE7       29.89R
ANDREWS AFB    CLEAR     62  51  66 S9        29.88S
PHILADELPHIA   PTCLDY    61  51  70 SW7       29.90R
HENDERSON NC   CLEAR     59  47  64 S3        29.93R
GREENSBORO     PTCLDY    62  51  67 S5        29.91S
ROCKY MOUNT    CLEAR     55  54  96 CALM      29.93S
$$

VAZ100-240400-
MARINE

STATION/POSITION TIME  TEMP    WIND        PRES    WAVE   SWELL
                       AIR SEA DIR/SP/G            HT/PER HT/PER
                 (UTC) (F)     (DEG/KT/KT) (MB)    (FT/S) (FT/S)
CAPE MAY NJ      0248   53 44  160/ 10/ 13 1012.8S
LEWES DE         0248   60 45  190/  7/ 13 1013.2R
OCEAN-CITY-INLET 0248   47 44  200/  8/ 10 1014.5S
WACHAPREAGUE VA  0248   54 55  220/  4/  6 1014.2F
THOMAS POINT MD  0300   52 44  170/ 16/ 17   N/A
GOOSES REEF MD   0250   48     160/ 12/ 14 1013.2R
COVE POINT MD    0248   50     190/ 12/ 12 1013.5R
SOLOMONS ISLAND  0248   57 46  190/  8/ 10   N/A
BISHOPS HEAD MD  0248   50 52  160/  9/ 10 1013.7R
PINEY POINT MD   0242          130/  5/  6   N/A
POTOMAC MD       0250   51     190/  6/  8 1012.5R
CAMBRIDGE MD     0248   58 43  170/  7/ 11 1012.4R
LEWISETTA VA     0248   58 45  190/  8/  9 1012.9R
RAPPAHANNOCK LGT 0248          150/ 11/ 11 1014.5R
YORK RVR RNG VA  0248   55     180/ 10/ 10 1013.0R
YORKTOWN VA      0248   62 48  180/  7/  8 1013.3R
JAMESTOWN VA     0250   59     130/  4/  6   N/A
DOMINION TERM VA 0248   57     150/  4/  5 1013.8R
KIPTOPEKE VA     0248      49  170/  8/  9   N/A
CHES BAY BRIDGE  0248   58 47  170/  7/  8 1013.8S
CAPE HENRY VA    0248   61     160/  6/  7   N/A
WILLOUBY STN VA  0248   61     170/ 10/ 10 1014.7R
S CRANEY ISL VA  0248   57     210/  2/  2 1013.7R
CAPE HENRY BUOY  0242      50                N/A     2/11   2/11
OFFSHORE WE BUOY 0251      49                N/A     3/11   2/11
64NM E OF VA BCH 0250   58 54  150/  6/  6 1014.4    4/11   3/11
DUCK PIER NC     0248   56 50  140/  6/  6 1013.8R
44100 DUCK FRF   0235      50                N/A     3/11   2/11
44056 DUCK FRF   0230      51                N/A     3/11   2/11
OREGON INLET NC  0242   55 56   60/  4/  5 1014.2R
HATTERAS NC      0248   66 62  120/  1/  2 1013.5R
DIAMOND SHLS NC  0250   71 74  140/ 12/ 14 1013.7    6/ 7   5/ 7
CAPE LOOKOUT NC  0300   66     150/  8/  9 1013.0R
$$




USA.gov is the U.S. government's official web portal to all federal, state and local government web resources and services.